sat.trackr.live / text

‹ back to catalog

STARLINK-32568

NORAD 62128 · 2024-222Q

PAYLOAD ACTIVE UNKNOWN

§ Identity

Operator
Country
US
Launch date
2024-11-27
Launch site
AFETR
Launch vehicle
Mass (kg)
RCS (m²)

Purposes: comms

External: N2YO · Heavens-Above · Gunter

§ Orbital elements

Epoch: 2026-09-19T23:53:32.483904Z

Period
94.27 min
Inclination
43.0003°
Eccentricity
0.0000754
Mean motion
15.27592846 rev/d
Perigee alt
482.5 km
Apogee alt
483.5 km
Semi-major
6,861.1 km
B*
4.1045e-4
RAAN
119.0077°
Arg perigee
248.4584°
Mean anomaly
111.6188°
Rev number
10,220

§ Raw data

STARLINK-325681 62128U 24222Q   26262.99551486  .00011054  00000+0  41045-3 0  99932 62128  43.0003 119.0077 0000754 248.4584 111.6188 15.27592846102207

JSON: /api/v1/satellites/62128 · /tle

For live sub-satellite position, see the globe view (requires WebGL).

§ Visibility from observer

Set your observer location to see the next 7 days of passes ≥ 10°. The values pass through the URL so the page stays shareable.

No JS? Fill the form by hand. The geolocation button needs JavaScript.